When you browse on this site, cookies collect data to enhance your experience and personalize the content and advertising you see.
Visit our Privacy Policy to learn more. By continuing to use the site, you agree to this use of cookies and data.

Hourly Weather Debalcevo

Today, 29 September, Tuesday

Time Temperature Precipitation Wind Pressure Humidity
00:00 +15°C° 0 mm 6 mps 739 mmHg 39%
01:00 +14°C° 0 mm 6 mps 739 mmHg 42%
02:00 +14°C° 0 mm 6 mps 739 mmHg 45%
03:00 +13°C° 0 mm 6 mps 739 mmHg 49%
04:00 +11°C° 0 mm 6 mps 739 mmHg 51%
05:00 +11°C° 0 mm 6 mps 738 mmHg 54%
06:00 +10°C° 0 mm 6 mps 738 mmHg 57%
07:00 +11°C° 0 mm 7 mps 738 mmHg 57%
08:00 +11°C° 0 mm 7 mps 738 mmHg 57%
09:00 +12°C° 0 mm 8 mps 738 mmHg 57%
10:00 +15°C° 0 mm 8 mps 738 mmHg 51%
11:00 +17°C° 0 mm 8 mps 738 mmHg 45%
12:00 +20°C° 0 mm 8 mps 737 mmHg 39%
13:00 +21°C° 0 mm 8 mps 737 mmHg 35%
14:00 +21°C° 0 mm 8 mps 737 mmHg 31%
15:00 +22°C° 0 mm 8 mps 736 mmHg 27%
16:00 +22°C° 0 mm 8 mps 736 mmHg 28%
17:00 +21°C° 0 mm 7 mps 735 mmHg 28%
18:00 +20°C° 0 mm 7 mps 735 mmHg 29%
19:00 +20°C° 0 mm 7 mps 735 mmHg 29%
20:00 +18°C° 0 mm 8 mps 734 mmHg 30%
21:00 +18°C° 0 mm 8 mps 734 mmHg 31%
22:00 +17°C° 0 mm 8 mps 734 mmHg 34%
23:00 +17°C° 0 mm 8 mps 733 mmHg 36%

Tomorrow, 30 September, Wednesday

Time Temperature Precipitation Wind Pressure Humidity
00:00 +16°C° 0 mm 9 mps 733 mmHg 39%
01:00 +15°C° 0 mm 9 mps 733 mmHg 41%
02:00 +13°C° 0 mm 9 mps 733 mmHg 44%
03:00 +12°C° 0 mm 9 mps 733 mmHg 46%
04:00 +12°C° 0 mm 9 mps 732 mmHg 49%
05:00 +11°C° 0 mm 9 mps 732 mmHg 51%
06:00 +10°C° 0 mm 9 mps 732 mmHg 54%
07:00 +11°C° 0 mm 9 mps 732 mmHg 51%
08:00 +12°C° 0 mm 10 mps 732 mmHg 48%
09:00 +13°C° 0 mm 11 mps 732 mmHg 45%
10:00 +14°C° 0 mm 11 mps 732 mmHg 41%
11:00 +17°C° 0 mm 11 mps 732 mmHg 38%
12:00 +19°C° 0 mm 11 mps 732 mmHg 34%
13:00 +19°C° 0 mm 10 mps 731 mmHg 32%
14:00 +19°C° 0 mm 10 mps 731 mmHg 29%
15:00 +21°C° 0 mm 9 mps 731 mmHg 26%
16:00 +21°C° 0 mm 9 mps 731 mmHg 26%
17:00 +21°C° 0 mm 8 mps 731 mmHg 26%
18:00 +21°C° 0 mm 8 mps 731 mmHg 26%
19:00 +20°C° 0.1 mm 8 mps 731 mmHg 31%
20:00 +18°C° 0.1 mm 9 mps 732 mmHg 36%
21:00 +17°C° 0.1 mm 9 mps 732 mmHg 41%
22:00 +17°C° 0.1 mm 9 mps 732 mmHg 41%
23:00 +16°C° 0.1 mm 9 mps 732 mmHg 40%

Day after tomorrow, 1 October, Thursday

Time Temperature Precipitation Wind Pressure Humidity
00:00 +16°C° 0.1 mm 9 mps 732 mmHg 40%
01:00 +15°C° 0.1 mm 9 mps 732 mmHg 44%
02:00 +13°C° 0.1 mm 8 mps 732 mmHg 48%
03:00 +12°C° 0.1 mm 8 mps 732 mmHg 52%
04:00 +12°C° 0.1 mm 8 mps 732 mmHg 52%
05:00 +12°C° 0.1 mm 8 mps 733 mmHg 53%
06:00 +12°C° 0.1 mm 8 mps 733 mmHg 53%
07:00 +12°C° 0.1 mm 8 mps 733 mmHg 52%
08:00 +13°C° 0.1 mm 9 mps 733 mmHg 51%
09:00 +15°C° 0.1 mm 9 mps 733 mmHg 49%
10:00 +16°C° 0.1 mm 9 mps 733 mmHg 48%
11:00 +17°C° 0.1 mm 9 mps 733 mmHg 47%
12:00 +17°C° 0.1 mm 9 mps 733 mmHg 46%
13:00 +17°C° 0.1 mm 8 mps 733 mmHg 45%
14:00 +17°C° 0.1 mm 7 mps 733 mmHg 44%
15:00 +17°C° 0.1 mm 6 mps 733 mmHg 44%
16:00 +16°C° 0.6 mm 6 mps 733 mmHg 51%
17:00 +15°C° 0.6 mm 5 mps 733 mmHg 58%
18:00 +14°C° 0.6 mm 4 mps 733 mmHg 65%
19:00 +14°C° 0.3 mm 4 mps 733 mmHg 61%
20:00 +14°C° 0.3 mm 5 mps 734 mmHg 58%
21:00 +15°C° 0.3 mm 5 mps 734 mmHg 54%
22:00 +15°C° 0.1 mm 5 mps 734 mmHg 51%
23:00 +15°C° 0.1 mm 6 mps 734 mmHg 48%

2 October, Friday

Time Temperature Precipitation Wind Pressure Humidity
00:00 +15°C° 0.1 mm 6 mps 734 mmHg 44%
01:00 +15°C° 0 mm 6 mps 734 mmHg 47%
02:00 +14°C° 0 mm 6 mps 734 mmHg 50%
03:00 +12°C° 0 mm 7 mps 734 mmHg 53%
04:00 +13°C° 0 mm 6 mps 734 mmHg 56%
05:00 +11°C° 0 mm 6 mps 734 mmHg 58%
06:00 +11°C° 0 mm 6 mps 734 mmHg 61%
07:00 +11°C° 0 mm 7 mps 734 mmHg 58%
08:00 +12°C° 0 mm 7 mps 734 mmHg 55%
09:00 +14°C° 0 mm 7 mps 735 mmHg 52%
10:00 +15°C° 0 mm 7 mps 735 mmHg 49%
11:00 +17°C° 0 mm 7 mps 735 mmHg 46%
12:00 +18°C° 0 mm 7 mps 735 mmHg 42%
13:00 +20°C° 0 mm 7 mps 735 mmHg 40%
14:00 +21°C° 0 mm 7 mps 735 mmHg 37%
15:00 +21°C° 0 mm 7 mps 735 mmHg 34%
16:00 +20°C° 0 mm 7 mps 735 mmHg 41%
17:00 +18°C° 0 mm 7 mps 735 mmHg 48%
18:00 +16°C° 0 mm 8 mps 735 mmHg 55%
19:00 +16°C° 0 mm 7 mps 735 mmHg 56%
20:00 +16°C° 0 mm 6 mps 736 mmHg 58%
21:00 +15°C° 0 mm 6 mps 736 mmHg 59%
22:00 +15°C° 0 mm 5 mps 736 mmHg 62%
23:00 +14°C° 0 mm 5 mps 736 mmHg 65%

3 October, Saturday

Time Temperature Precipitation Wind Pressure Humidity
00:00 +13°C° 0 mm 5 mps 736 mmHg 68%
01:00 +14°C° 0 mm 5 mps 736 mmHg 68%
02:00 +14°C° 0 mm 5 mps 736 mmHg 68%
03:00 +14°C° 0 mm 5 mps 736 mmHg 68%
04:00 +13°C° 0 mm 5 mps 736 mmHg 70%
05:00 +13°C° 0 mm 5 mps 736 mmHg 71%
06:00 +12°C° 0 mm 5 mps 736 mmHg 72%
07:00 +13°C° 0 mm 5 mps 737 mmHg 67%
08:00 +14°C° 0 mm 5 mps 737 mmHg 61%
09:00 +15°C° 0 mm 5 mps 737 mmHg 55%
10:00 +16°C° 0 mm 5 mps 737 mmHg 53%
11:00 +19°C° 0 mm 4 mps 737 mmHg 50%
12:00 +20°C° 0 mm 4 mps 738 mmHg 48%
13:00 +21°C° 0 mm 4 mps 737 mmHg 47%
14:00 +21°C° 0 mm 3 mps 737 mmHg 46%
15:00 +21°C° 0 mm 3 mps 737 mmHg 46%
16:00 +21°C° 0 mm 3 mps 737 mmHg 48%
17:00 +20°C° 0 mm 2 mps 737 mmHg 50%
18:00 +19°C° 0 mm 2 mps 737 mmHg 52%
19:00 +19°C° 0 mm 3 mps 737 mmHg 50%
20:00 +19°C° 0 mm 3 mps 737 mmHg 49%
21:00 +19°C° 0 mm 4 mps 737 mmHg 47%
22:00 +18°C° 0 mm 4 mps 737 mmHg 42%
23:00 +17°C° 0 mm 3 mps 737 mmHg 37%

4 October, Sunday

Time Temperature Precipitation Wind Pressure Humidity
00:00 +17°C° 0 mm 3 mps 737 mmHg 32%
01:00 +16°C° 0 mm 3 mps 737 mmHg 34%
02:00 +16°C° 0 mm 2 mps 737 mmHg 35%
03:00 +15°C° 0 mm 2 mps 737 mmHg 37%
04:00 +15°C° 0 mm 2 mps 737 mmHg 39%
05:00 +15°C° 0 mm 2 mps 737 mmHg 41%
06:00 +15°C° 0 mm 2 mps 737 mmHg 43%
07:00 +15°C° 0 mm 2 mps 737 mmHg 45%
08:00 +16°C° 0 mm 2 mps 737 mmHg 47%
09:00 +17°C° 0 mm 3 mps 737 mmHg 50%
10:00 +19°C° 0 mm 3 mps 737 mmHg 48%
11:00 +20°C° 0 mm 3 mps 737 mmHg 47%
12:00 +22°C° 0 mm 3 mps 737 mmHg 46%
13:00 +22°C° 0 mm 3 mps 737 mmHg 45%
14:00 +24°C° 0 mm 3 mps 737 mmHg 44%
15:00 +24°C° 0 mm 3 mps 737 mmHg 43%
16:00 +23°C° 0 mm 2 mps 736 mmHg 45%
17:00 +21°C° 0 mm 2 mps 736 mmHg 47%
18:00 +21°C° 0 mm 1 mps 736 mmHg 50%
19:00 +21°C° 0 mm 1 mps 736 mmHg 52%
20:00 +20°C° 0 mm 1 mps 736 mmHg 54%
21:00 +18°C° 0 mm 2 mps 736 mmHg 56%
22:00 +18°C° 0 mm 2 mps 736 mmHg 56%
23:00 +18°C° 0 mm 2 mps 736 mmHg 56%
Show more